This is the latest recevied weather packets stored in our database for station/object EA3EH-1. If no packets are shown the sender has not sent any weather packets the latest 10 day(s).
| Time | Temp. | Humidity | Pressure | Rain* | Wind** | Luminosity | Snow |
|---|---|---|---|---|---|---|---|
| 1777987605 | 17.78° C | 45% | 1007 hPa | 0 mm | - | - | - |
| 1777987309 | 17.78° C | 44% | 1006 hPa | 0 mm | - | - | - |
| 1777986705 | 18.33° C | 44% | 1006 hPa | 0 mm | - | - | - |
| 1777986405 | 18.33° C | 44% | 1007 hPa | 0 mm | - | - | - |
| 1777986105 | 18.89° C | 43% | 1007 hPa | 0 mm | - | - | - |
| 1777985805 | 18.89° C | 38% | 1007 hPa | 0 mm | - | - | - |
| 1777985505 | 18.89° C | 37% | 1006 hPa | 0 mm | - | - | - |
| 1777985208 | 19.44° C | 36% | 1006 hPa | 0 mm | - | - | - |
| 1777984904 | 19.44° C | 35% | 1006 hPa | 0 mm | - | - | - |
| 1777984605 | 19.44° C | 35% | 1006 hPa | 0 mm | - | - | - |
| 1777983706 | 20.56° C | 33% | 1006 hPa | 0 mm | - | - | - |
| 1777983405 | 20.56° C | 33% | 1006 hPa | 0 mm | - | - | - |
| 1777982805 | 20.56° C | 31% | 1007 hPa | 0 mm | - | - | - |
| 1777981908 | 20.56° C | 27% | 1007 hPa | 0 mm | - | - | - |
| 1777981306 | 21.67° C | 25% | 1007 hPa | 0 mm | - | - | - |
| 1777981004 | 21.67° C | 27% | 1007 hPa | 0 mm | - | - | - |
| 1777979805 | 20.56° C | 28% | 1007 hPa | 0 mm | - | - | - |
| 1777978485 | 20° C | 34% | 1008 hPa | 0 mm | - | - | - |
| 1777978187 | 19.44° C | 34% | 1008 hPa | 0 mm | - | - | - |
| 1777977885 | 19.44° C | 35% | 1008 hPa | 0 mm | - | - | - |
| 1777977285 | 19.44° C | 34% | 1008 hPa | 0 mm | - | - | - |
| 1777976685 | 19.44° C | 34% | 1008 hPa | 0 mm | - | - | - |
| 1777974585 | 18.89° C | 35% | 1008 hPa | 0 mm | - | - | - |
| 1777974285 | 18.89° C | 36% | 1008 hPa | 0 mm | - | - | - |
| 1777973985 | 18.33° C | 37% | 1008 hPa | 0 mm | - | - | - |
* Rain latest hour (hover to see other rain measurements)
** Current wind speed in m/s (hover to see current wind gust speed)